Weather reports worldwide

Advertisment
Boscombe Down, United Kingdom (3746): temperature & dewpoint: 11.10.2018 07:00:00 - 17.10.2018 07:00:00 (BST)Boscombe Down, United Kingdom (3746): wind speed & gusts: 11.10.2018 07:00:00 - 17.10.2018 07:00:00 (BST)Boscombe Down, United Kingdom (3746): wind direction: 11.10.2018 07:00:00 - 17.10.2018 07:00:00 (BST)Boscombe Down, United Kingdom (3746): reduced air pressure: 11.10.2018 07:00:00 - 17.10.2018 07:00:00 (BST)Boscombe Down, United Kingdom (3746): visibility: 11.10.2018 07:00:00 - 17.10.2018 07:00:00 (BST)Boscombe Down, United Kingdom (3746): precipitation: 11.10.2018 07:00:00 - 17.10.2018 07:00:00 (BST)
Date & Time tt [°C] td [°C] ff [km/h] ff [kn] fx [km/h] fx [kn] dd ppp [hPa] vv [km] rr [mm]
17.10.2018 07:00:00 11,6 11,5 4 2 - - S 1017,6 2,5 0,0
17.10.2018 06:00:00 11,4 11,2 4 2 - - S 1017,3 4,2 0,2
17.10.2018 05:00:00 11,4 11,1 5 3 - - S 1017,1 3,8 0,4
17.10.2018 04:00:00 11,3 10,7 8 4 - - SSW 1017,1 7 0,0
17.10.2018 03:00:00 11,0 10,5 8 4 - - S 1017,3 21 0,0
17.10.2018 02:00:00 10,1 9,8 8 4 - - S 1017,3 17 0,0
17.10.2018 01:00:00 9,6 9,2 8 4 - - SSW 1017,7 2,1 0,0
17.10.2018 00:00:00 10,6 10,1 4 2 - - S 1017,6 23 0,0
16.10.2018 23:00:00 11,7 10,9 11 6 - - SSW 1017,6 35 0,0
16.10.2018 22:00:00 12,1 10,8 13 7 - - SSW 1017,5 50 0,0
16.10.2018 21:00:00 12,2 10,8 11 6 - - S 1017,2 29 0,0
16.10.2018 20:00:00 12,3 10,6 9 5 - - SSW 1017,1 50 0,0
16.10.2018 19:00:00 12,7 9,7 13 7 - - SSW 1016,9 10 0,0
16.10.2018 18:00:00 14,3 10,6 15 8 - - SW 1016,2 10 0,0
16.10.2018 17:00:00 15,0 12,0 15 8 - - SSW 1015,9 10 0,0
16.10.2018 16:00:00 15,6 12,8 21 11 - - SW 1015,7 10 0,0
16.10.2018 15:00:00 16,0 14,4 15 8 - - SSW 1015,6 9 0,0
16.10.2018 14:00:00 15,8 14,2 11 6 - - S 1015,5 8 0,0
16.10.2018 13:00:00 15,1 14,1 15 8 - - SW 1015,8 8 0,0
16.10.2018 12:00:00 15,3 14,9 9 5 - - S 1015,6 7 0,0
16.10.2018 11:00:00 14,7 14,7 8 4 - - SE 1015,2 5 0,0
16.10.2018 10:00:00 14,1 14,1 9 5 - - SE 1015,5 1,5 0,2
16.10.2018 09:00:00 13,4 13,4 5 3 - - E 1015,5 0,7 0,0
16.10.2018 08:00:00 12,8 12,8 8 4 - - ESE 1015,2 0,3 0,0
16.10.2018 07:00:00 12,4 12,4 8 4 - - E 1014,7 0,2 0,0
16.10.2018 06:00:00 12,2 12,1 4 2 - - NE 1014,8 0,1 0,0
16.10.2018 05:00:00 11,9 11,9 2 1 - - ESE 1014,4 - 0,0
16.10.2018 04:00:00 11,7 11,7 8 4 - - E 1014,1 0,1 0,0
16.10.2018 03:00:00 11,8 11,8 5 3 - - ESE 1014,6 0,1 0,2
16.10.2018 02:00:00 11,8 11,8 11 6 - - ESE 1014,6 0,1 0,0
16.10.2018 01:00:00 11,8 11,7 16 9 - - ESE 1014,5 0,1 0,0
16.10.2018 00:00:00 11,9 11,8 11 6 - - E 1014,6 0,1 0,0
15.10.2018 23:00:00 12,1 12,0 11 6 - - E 1014,5 0,1 0,0
15.10.2018 22:00:00 12,2 12,0 13 7 - - E 1014,4 0,8 0,0
15.10.2018 21:00:00 12,2 11,8 13 7 - - ENE 1014,0 3,4 0,0
15.10.2018 20:00:00 12,4 11,9 11 6 - - NE 1013,7 6 0,0
15.10.2018 19:00:00 12,4 11,8 11 6 - - NE 1013,3 18 0,0
15.10.2018 18:00:00 12,5 11,7 16 9 - - E 1012,7 10 0,0
15.10.2018 17:00:00 12,7 11,7 16 9 - - ENE 1012,1 10 0,0
15.10.2018 16:00:00 12,2 11,3 21 11 - - NE 1011,8 10 0,0
15.10.2018 15:00:00 11,9 11,2 15 8 - - NNE 1011,6 7 0,0
15.10.2018 14:00:00 11,9 11,3 18 10 - - NNE 1011,3 10 0,0
15.10.2018 13:00:00 11,7 10,8 18 10 - - NE 1011,2 8 0,0
15.10.2018 12:00:00 10,9 10,5 16 9 - - NNE 1011,0 10 0,2
15.10.2018 11:00:00 10,7 10,2 15 8 - - N 1010,4 4,0 0,0
15.10.2018 10:00:00 10,3 10,0 13 7 - - N 1010,1 4,0 0,2
15.10.2018 09:00:00 10,0 9,6 21 11 - - N 1009,6 3,0 0,0
15.10.2018 08:00:00 9,9 9,4 16 9 - - N 1008,8 10 1,0
15.10.2018 07:00:00 9,8 9,3 21 11 - - NNE 1008,4 10 0,0
15.10.2018 06:00:00 9,6 9,1 18 10 - - NNE 1008,5 6 0,0
15.10.2018 05:00:00 9,5 8,8 18 10 - - NNE 1008,0 50 0,0
15.10.2018 04:00:00 9,3 8,6 22 12 - - NNE 1007,6 50 0,6
15.10.2018 03:00:00 9,2 8,5 24 13 - - NNE 1007,7 24 0,2
15.10.2018 02:00:00 9,3 8,4 22 12 - - NNE 1008,7 40 0,2
15.10.2018 01:00:00 9,1 8,1 26 14 - - NNE 1008,5 50 0,0
15.10.2018 00:00:00 8,8 8,0 18 10 - - NNE 1009,0 10 0,4
14.10.2018 23:00:00 8,8 7,8 26 14 - - NNE 1008,8 29 0,0
14.10.2018 22:00:00 8,4 7,5 26 14 - - NNE 1008,9 10 0,0
14.10.2018 21:00:00 8,2 7,5 26 14 - - NNE 1008,9 50 0,0
14.10.2018 20:00:00 8,4 7,5 26 14 - - NNE 1008,9 45 0,0
14.10.2018 19:00:00 8,8 7,8 24 13 - - N 1008,8 18 0,0
14.10.2018 18:00:00 9,7 8,4 22 12 - - N 1008,0 13 0,2
14.10.2018 17:00:00 10,3 8,8 21 11 - - NNE 1007,5 50 0,0
14.10.2018 16:00:00 10,6 9,0 22 12 - - N 1006,9 40 0,0
14.10.2018 15:00:00 10,7 9,1 28 15 - - NNE 1006,6 30 0,0
14.10.2018 14:00:00 10,7 9,2 34 18 - - N 1006,1 10 0,2
14.10.2018 13:00:00 10,9 10,0 24 13 - - NNW 1006,7 7 0,2
14.10.2018 12:00:00 11,1 10,2 26 14 - - N 1006,3 10 0,2
14.10.2018 11:00:00 11,0 10,6 21 11 - - N 1006,2 9 3,0
14.10.2018 10:00:00 10,8 10,4 22 12 - - NNW 1006,7 4,5 4,2
14.10.2018 09:00:00 11,7 11,3 13 7 - - NNW 1005,8 6 4,4
14.10.2018 08:00:00 11,6 11,2 18 10 - - N 1004,7 5 4,8
14.10.2018 07:00:00 12,2 11,8 18 10 - - NW 1005,2 9 2,4
14.10.2018 06:00:00 12,4 11,9 11 6 - - NNW 1005,3 10 4,2
14.10.2018 05:00:00 12,7 12,3 2 1 - - WNW 1006,1 9 1,2
14.10.2018 04:00:00 12,7 12,2 8 4 - - S 1007,0 16 0,6
14.10.2018 03:00:00 12,8 12,0 9 5 - - S 1007,1 30 0,0
14.10.2018 02:00:00 12,4 11,3 9 5 - - SSW 1007,5 50 0,0
14.10.2018 01:00:00 13,5 12,6 18 10 - - SW 1007,2 45 0,0
14.10.2018 00:00:00 14,7 13,6 16 9 - - SSW 1007,3 6 0,4
13.10.2018 23:00:00 15,5 14,4 18 10 - - SW 1007,3 10 0,4
13.10.2018 22:00:00 17,5 15,5 26 14 - - S 1006,8 5 0,0
13.10.2018 21:00:00 17,5 15,6 26 14 - - SSW 1006,9 16 0,0
13.10.2018 20:00:00 18,5 15,4 26 14 50 27 SSW 1007,0 10 0,0
13.10.2018 19:00:00 19,3 15,0 31 17 46 25 SSW 1006,8 35 0,0
13.10.2018 18:00:00 19,1 15,2 28 15 - - S 1006,3 28 0,0
13.10.2018 17:00:00 19,3 15,2 28 15 50 27 S 1006,3 29 0,0
13.10.2018 16:00:00 20,1 15,5 31 17 59 32 S 1006,5 24 0,0
13.10.2018 15:00:00 20,4 15,9 42 23 61 33 S 1006,5 23 0,0
13.10.2018 14:00:00 19,9 15,8 35 19 55 30 S 1007,4 10 0,0
13.10.2018 13:00:00 19,7 15,0 34 18 57 31 S 1008,0 27 -
13.10.2018 12:00:00 18,6 14,3 34 18 50 27 S 1008,5 35 0,0
13.10.2018 11:00:00 18,2 14,8 29 16 48 26 S 1009,3 45 0,0
13.10.2018 10:00:00 17,0 15,7 35 19 57 31 S 1009,7 23 0,2
13.10.2018 09:00:00 16,4 15,6 29 16 59 32 S 1009,7 35 1,4
13.10.2018 08:00:00 17,7 13,9 35 19 54 29 S 1009,1 10 0,0
13.10.2018 07:00:00 17,5 13,8 29 16 48 26 S 1008,9 22 0,0
13.10.2018 06:00:00 17,2 15,2 31 17 50 27 S 1008,8 10 0,4
13.10.2018 05:00:00 17,5 14,7 35 19 50 27 S 1009,1 12 0,2
13.10.2018 04:00:00 17,3 15,2 34 18 46 25 S 1009,3 22 0,0
13.10.2018 03:00:00 17,5 15,2 31 17 52 28 S 1009,8 10 0,2
13.10.2018 02:00:00 16,7 15,3 28 15 - - S 1010,0 18 1,0
13.10.2018 01:00:00 18,0 15,5 34 18 50 27 S 1009,9 22 0,0
13.10.2018 00:00:00 17,3 15,8 29 16 55 30 S 1010,2 24 0,0
12.10.2018 23:00:00 17,7 15,6 35 19 57 31 SSW 1010,1 13 0,0
12.10.2018 22:00:00 17,2 15,4 41 22 65 35 SSW 1010,0 6 0,0
12.10.2018 21:00:00 18,5 14,3 46 25 70 38 SSW 1009,5 10 0,0
12.10.2018 20:00:00 18,3 13,9 48 26 74 40 SSW 1009,3 25 0,0
12.10.2018 19:00:00 18,2 13,8 48 26 72 39 SSW 1009,1 35 0,0
12.10.2018 18:00:00 17,8 14,4 50 27 76 41 SSW 1008,6 21 0,0
12.10.2018 17:00:00 18,2 14,1 41 22 57 31 S 1008,2 26 0,0
12.10.2018 16:00:00 18,0 13,7 41 22 63 34 S 1008,5 28 0,0
12.10.2018 15:00:00 17,4 13,3 41 22 61 33 S 1008,6 20 0,0
12.10.2018 14:00:00 17,4 13,1 41 22 67 36 S 1008,4 10 0,0
12.10.2018 13:00:00 16,9 12,2 39 21 67 36 S 1008,2 10 0,0
12.10.2018 12:00:00 15,6 12,7 35 19 65 35 S 1008,2 10 0,8
12.10.2018 11:00:00 15,8 13,0 41 22 61 33 S 1008,1 10 0,0
12.10.2018 10:00:00 14,8 13,4 34 18 57 31 S 1007,8 10 0,4
12.10.2018 09:00:00 14,5 13,4 48 26 74 40 S 1007,8 10 0,2
12.10.2018 08:00:00 14,5 12,9 41 22 61 33 S 1007,2 10 0,2
12.10.2018 07:00:00 14,5 12,7 42 23 63 34 S 1007,1 10 0,0
12.10.2018 06:00:00 14,8 12,3 39 21 59 32 S 1006,5 17 0,0
12.10.2018 05:00:00 14,7 12,1 37 20 57 31 S 1006,7 17 0,0
12.10.2018 04:00:00 14,1 11,9 35 19 50 27 S 1006,7 16 0,0
12.10.2018 03:00:00 13,2 10,6 22 12 - - S 1006,9 35 0,0
12.10.2018 02:00:00 12,7 10,7 22 12 - - S 1007,2 24 0,0
12.10.2018 01:00:00 12,3 10,7 22 12 - - S 1007,0 29 0,0
12.10.2018 00:00:00 11,5 10,6 15 8 - - S 1006,8 35 0,0
11.10.2018 23:00:00 12,1 11,5 13 7 - - SSE 1006,7 15 0,0
11.10.2018 22:00:00 11,4 10,7 11 6 - - SSE 1006,3 16 0,0
11.10.2018 21:00:00 12,0 11,0 9 5 - - S 1005,8 20 0,0
11.10.2018 20:00:00 13,4 12,0 18 10 - - S 1005,1 20 0,0
11.10.2018 19:00:00 13,8 12,2 21 11 - - S 1004,2 17 0,0
11.10.2018 18:00:00 14,6 12,8 24 13 48 26 S 1004,0 10 0,2
11.10.2018 17:00:00 16,4 13,9 35 19 55 30 S 1002,8 10 0,0
11.10.2018 16:00:00 17,2 13,5 31 17 55 30 S 1002,3 10 0,0
11.10.2018 15:00:00 17,7 13,2 31 17 48 26 S 1001,8 10 0,0
11.10.2018 14:00:00 17,8 13,8 29 16 48 26 S 1001,3 30 0,0
11.10.2018 13:00:00 16,5 13,5 29 16 48 26 SSE 1001,6 10 0,0
11.10.2018 12:00:00 16,6 13,6 28 15 - - SE 1002,0 10 0,0
11.10.2018 11:00:00 16,7 13,4 22 12 - - SSE 1002,5 10 0,0
11.10.2018 10:00:00 15,8 13,4 22 12 - - S 1002,7 10 0,0
11.10.2018 09:00:00 14,7 13,0 21 11 - - SSE 1002,3 10 0,0
11.10.2018 08:00:00 13,9 12,2 22 12 - - SSE 1001,8 30 0,0
11.10.2018 07:00:00 13,3 11,6 16 9 - - SE 1001,7 10 0,0

tt = temperature
td = dewpoint
ff = wind speed
fx = gusts
dd = wind direction
ppp = reduced air pressure
vv = visibility
rr = precipitation

Next stations